{"data":{"norad_id":48907,"intl_designator":"2021-059AE","name":"MANDRAKE 2 ABLE","alt_names":[],"object_type":"PAYLOAD","status":"ACTIVE","operator":null,"country":"US","launch_date":"2021-06-30","launch_site_code":"AFETR","launch_vehicle":null,"mission":null,"orbit_class":"UNKNOWN","rcs_meters":null,"size_class":null,"mass_kg":null,"dimensions":null,"purposes":[],"wikipedia_slug":null,"has_3d_model":false,"image_url":null,"decayed_at":null,"tle_current":{"epoch":"2026-05-25T01:32:52.772352Z","epoch_age_seconds":79557,"freshness":"FRESH","line1":"1 48907U 21059AE  26145.06449968  .00020124  00000+0  31305-3 0  9992","line2":"2 48907  97.7046 333.1037 0006224  82.7997 277.3963 15.53939763273537","mean_motion":15.53939763,"eccentricity":0.0006224,"inclination_deg":97.7046,"raan_deg":333.1037,"arg_perigee_deg":82.7997,"mean_anomaly_deg":277.3963,"bstar":0.00031305,"rev_number":27353,"period_min":92.667684699693,"perigee_km":401.01438810048,"apogee_km":409.4583312586,"semimajor_km":6783.3733596795,"source":"CELESTRAK","updated_at":"2026-05-25T13:37:56.975753Z"}}}